| time (UTC) | temp F | wind direction | speed MPH | gust MPH | rain 1hr in | rain 24hr in | rain mn in | humidity % | barometer mb |
| 20260507040539 | 71 | 261 | 1.0 | 4.0 | 0.00 | 0.00 | 0.00 | 60 | 1018.2 |
| 20260507040058 | 71 | 68 | 0.0 | 3.0 | 0.00 | 0.00 | 0.00 | 60 | 1018.4 |
| 20260507035539 | 70 | 44 | 0.0 | 3.0 | 0.00 | 0.00 | 0.00 | 60 | 1018.3 |
| 20260507035038 | 70 | 0 | 0.0 | 7.0 | 0.00 | 0.00 | 0.00 | 60 | 1018.4 |
| 20260507034556 | 70 | 53 | 2.0 | 13.0 | 0.00 | 0.00 | 0.00 | 60 | 1018.5 |
| 20260507034035 | 70 | 292 | 3.0 | 13.0 | 0.00 | 0.00 | 0.00 | 59 | 1018.5 |
| 20260507033536 | 70 | 242 | 2.0 | 13.0 | 0.00 | 0.00 | 0.00 | 58 | 1018.4 |
| 20260507033048 | 71 | 232 | 4.0 | 13.0 | 0.00 | 0.00 | 0.00 | 56 | 1018.5 |
| 20260507032539 | 72 | 280 | 2.0 | 12.0 | 0.00 | 0.00 | 0.00 | 56 | 1018.7 |
| 20260507032036 | 73 | 346 | 3.0 | 12.0 | 0.00 | 0.00 | 0.00 | 55 | 1018.7 |
| 20260507031545 | 73 | 61 | 2.0 | 11.0 | 0.00 | 0.00 | 0.00 | 55 | 1018.7 |
| 20260507031036 | 72 | 261 | 2.0 | 9.0 | 0.00 | 0.00 | 0.00 | 55 | 1018.7 |
| 20260507030537 | 72 | 71 | 2.0 | 15.0 | 0.00 | 0.00 | 0.00 | 57 | 1018.7 |
| 20260507030053 | 71 | 306 | 3.0 | 15.0 | 0.00 | 0.00 | 0.00 | 56 | 1018.7 |
| 20260507025538 | 71 | 26 | 5.0 | 14.0 | 0.00 | 0.00 | 0.00 | 57 | 1018.8 |
| 20260507025040 | 71 | 228 | 5.0 | 14.0 | 0.00 | 0.00 | 0.00 | 58 | 1018.9 |
| 20260507024545 | 70 | 269 | 3.0 | 14.0 | 0.00 | 0.00 | 0.00 | 59 | 1019.0 |
| 20260507024040 | 70 | 185 | 4.0 | 14.0 | 0.00 | 0.00 | 0.00 | 58 | 1019.0 |
| 20260507023539 | 71 | 333 | 3.0 | 10.0 | 0.00 | 0.00 | 0.00 | 58 | 1019.1 |
| 20260507023047 | 71 | 52 | 2.0 | 8.0 | 0.00 | 0.00 | 0.00 | 57 | 1018.9 |
| 20260507022539 | 71 | 300 | 3.0 | 8.0 | 0.00 | 0.00 | 0.00 | 58 | 1019.0 |
| 20260507022038 | 71 | 336 | 3.0 | 9.0 | 0.00 | 0.00 | 0.00 | 58 | 1018.9 |
| 20260507021550 | 71 | 63 | 4.0 | 9.0 | 0.00 | 0.00 | 0.00 | 58 | 1018.9 |
| 20260507021037 | 71 | 223 | 2.0 | 8.0 | 0.00 | 0.00 | 0.00 | 57 | 1018.9 |
| 20260507020536 | 71 | 76 | 2.0 | 8.0 | 0.00 | 0.00 | 0.00 | 58 | 1019.0 |
| 20260507020057 | 71 | 248 | 2.0 | 8.0 | 0.00 | 0.00 | 0.00 | 58 | 1019.3 |
| 20260507015538 | 71 | 40 | 2.0 | 10.0 | 0.00 | 0.00 | 0.00 | 56 | 1019.2 |
| 20260507015038 | 71 | 255 | 2.0 | 11.0 | 0.00 | 0.00 | 0.00 | 57 | 1019.4 |
| 20260507014557 | 71 | 72 | 3.0 | 12.0 | 0.00 | 0.00 | 0.00 | 57 | 1019.4 |
| 20260507014036 | 71 | 320 | 3.0 | 16.0 | 0.00 | 0.00 | 0.00 | 55 | 1019.6 |
| 20260507013542 | 72 | 67 | 5.0 | 16.0 | 0.00 | 0.00 | 0.00 | 55 | 1019.6 |
| 20260507013045 | 72 | 195 | 3.0 | 15.0 | 0.00 | 0.00 | 0.00 | 55 | 1019.8 |
| 20260507012538 | 72 | 77 | 3.0 | 15.0 | 0.00 | 0.00 | 0.00 | 56 | 1019.8 |
| 20260507012038 | 72 | 54 | 3.0 | 15.0 | 0.00 | 0.00 | 0.00 | 56 | 1019.6 |
| 20260507011601 | 72 | 60 | 5.0 | 13.0 | 0.00 | 0.00 | 0.00 | 55 | 1019.8 |
| 20260507011039 | 72 | 300 | 3.0 | 10.0 | 0.00 | 0.00 | 0.00 | 55 | 1019.7 |
| 20260507010539 | 72 | 53 | 2.0 | 11.0 | 0.00 | 0.00 | 0.00 | 58 | 1019.8 |
| 20260507010048 | 71 | 242 | 3.0 | 14.0 | 0.00 | 0.00 | 0.00 | 60 | 1019.9 |
| 20260507005539 | 71 | 309 | 4.0 | 15.0 | 0.00 | 0.00 | 0.00 | 60 | 1019.9 |
| 20260507005041 | 71 | 269 | 5.0 | 16.0 | 0.00 | 0.00 | 0.00 | 58 | 1019.9 |
| 20260507004550 | 71 | 248 | 8.0 | 16.0 | 0.00 | 0.00 | 0.00 | 60 | 1019.9 |
| 20260507004039 | 71 | 254 | 5.0 | 13.0 | 0.00 | 0.00 | 0.00 | 61 | 1019.9 |
| 20260507003539 | 70 | 32 | 3.0 | 13.0 | 0.00 | 0.00 | 0.00 | 65 | 1020.0 |
| 20260507003047 | 70 | 277 | 7.0 | 13.0 | 0.00 | 0.00 | 0.00 | 63 | 1020.1 |
| 20260507002538 | 70 | 286 | 3.0 | 15.0 | 0.00 | 0.00 | 0.00 | 64 | 1020.3 |
| 20260507002039 | 70 | 248 | 4.0 | 15.0 | 0.00 | 0.00 | 0.00 | 66 | 1020.5 |
| 20260507001555 | 70 | 304 | 3.0 | 10.0 | 0.00 | 0.00 | 0.00 | 67 | 1020.6 |
| 20260507001038 | 69 | 128 | 3.0 | 8.0 | 0.00 | 0.00 | 0.00 | 67 | 1020.8 |
| 20260507000541 | 69 | 46 | 2.0 | 10.0 | 0.00 | 0.00 | 0.00 | 66 | 1020.8 |
| 20260507000051 | 69 | 265 | 3.0 | 11.0 | 0.00 | 0.00 | 0.00 | 67 | 1020.8 |
| 20260506235540 | 69 | 52 | 5.0 | 11.0 | 0.00 | 0.00 | 0.00 | 67 | 1020.9 |
| 20260506235038 | 69 | 325 | 4.0 | 11.0 | 0.00 | 0.00 | 0.00 | 66 | 1020.9 |
| 20260506234548 | 69 | 295 | 5.0 | 9.0 | 0.00 | 0.00 | 0.00 | 68 | 1020.9 |
| 20260506234039 | 70 | 47 | 3.0 | 8.0 | 0.00 | 0.00 | 0.00 | 67 | 1021.0 |
| 20260506233539 | 70 | 244 | 2.0 | 8.0 | 0.00 | 0.00 | 0.00 | 69 | 1021.0 |
| 20260506233049 | 70 | 46 | 2.0 | 6.0 | 0.00 | 0.00 | 0.00 | 67 | 1021.1 |
| 20260506232538 | 70 | 194 | 1.0 | 6.0 | 0.00 | 0.00 | 0.00 | 70 | 1021.2 |
| 20260506232038 | 69 | 184 | 1.0 | 6.0 | 0.00 | 0.00 | 0.00 | 70 | 1021.2 |
| 20260506231544 | 69 | 329 | 2.0 | 6.0 | 0.00 | 0.00 | 0.00 | 71 | 1021.3 |
| 20260506231039 | 68 | 63 | 2.0 | 7.0 | 0.00 | 0.00 | 0.00 | 72 | 1021.3 |
| 20260506230541 | 68 | 49 | 2.0 | 8.0 | 0.00 | 0.00 | 0.00 | 72 | 1021.5 |
| 20260506230052 | 67 | 53 | 3.0 | 8.0 | 0.00 | 0.00 | 0.00 | 73 | 1021.6 |
| 20260506225540 | 67 | 26 | 2.0 | 8.0 | 0.00 | 0.00 | 0.00 | 74 | 1021.6 |
| 20260506225038 | 66 | 263 | 2.0 | 6.0 | 0.00 | 0.00 | 0.00 | 76 | 1021.7 |
| 20260506224545 | 65 | 88 | 2.0 | 6.0 | 0.00 | 0.00 | 0.00 | 79 | 1021.8 |
| 20260506224038 | 65 | 217 | 3.0 | 6.0 | 0.00 | 0.00 | 0.00 | 82 | 1021.8 |
| 20260506223539 | 64 | 69 | 1.0 | 3.0 | 0.00 | 0.00 | 0.00 | 82 | 1021.8 |
| 20260506223039 | 63 | 101 | 1.0 | 3.0 | 0.00 | 0.00 | 0.00 | 82 | 1021.9 |
| 20260506222539 | 62 | 0 | 0.0 | 2.0 | 0.00 | 0.00 | 0.00 | 83 | 1021.9 |
| 20260506222039 | 62 | 0 | 0.0 | 2.0 | 0.00 | 0.00 | 0.00 | 84 | 1021.9 |
| 20260506221542 | 61 | 0 | 0.0 | 3.0 | 0.00 | 0.00 | 0.00 | 84 | 1021.9 |
| 20260506221039 | 60 | 111 | 1.0 | 3.0 | 0.00 | 0.00 | 0.00 | 85 | 1021.8 |
| 20260506220536 | 60 | 0 | 1.0 | 3.0 | 0.00 | 0.00 | 0.00 | 85 | 1022.0 |
| 20260506220106 | 59 | 94 | 1.0 | 3.0 | 0.00 | 0.00 | 0.00 | 85 | 1022.0 |
| 20260506215536 | 59 | 94 | 0.0 | 1.0 | 0.00 | 0.00 | 0.00 | 85 | 1022.2 |
| 20260506215038 | 58 | 94 | 0.0 | 2.0 | 0.00 | 0.00 | 0.00 | 86 | 1022.2 |
| 20260506214548 | 58 | 0 | 0.0 | 2.0 | 0.00 | 0.00 | 0.00 | 86 | 1022.2 |
| 20260506214036 | 58 | 94 | 1.0 | 2.0 | 0.00 | 0.00 | 0.00 | 86 | 1022.3 |
| 20260506213538 | 57 | 94 | 0.0 | 1.0 | 0.00 | 0.00 | 0.00 | 86 | 1022.4 |
| 20260506213050 | 57 | 0 | 0.0 | 1.0 | 0.00 | 0.00 | 0.00 | 86 | 1022.4 |
| 20260506212538 | 57 | 0 | 0.0 | 1.0 | 0.00 | 0.00 | 0.00 | 86 | 1022.4 |
| 20260506212041 | 57 | 0 | 0.0 | 4.0 | 0.00 | 0.00 | 0.00 | 88 | 1022.4 |
| 20260506211544 | 57 | 94 | 1.0 | 4.0 | 0.00 | 0.00 | 0.00 | 88 | 1022.5 |
| 20260506211039 | 57 | 104 | 3.0 | 4.0 | 0.00 | 0.00 | 0.00 | 89 | 1022.5 |
| 20260506210542 | 56 | 109 | 2.0 | 4.0 | 0.00 | 0.00 | 0.00 | 90 | 1022.5 |
| 20260506210045 | 56 | 107 | 2.0 | 4.0 | 0.00 | 0.00 | 0.00 | 90 | 1022.4 |
| 20260506205539 | 56 | 94 | 1.0 | 4.0 | 0.00 | 0.00 | 0.00 | 90 | 1022.5 |
| 20260506205041 | 56 | 94 | 1.0 | 4.0 | 0.00 | 0.00 | 0.00 | 91 | 1022.6 |
| 20260506204552 | 55 | 88 | 1.0 | 4.0 | 0.00 | 0.00 | 0.00 | 91 | 1022.7 |
| 20260506204038 | 56 | 88 | 0.0 | 2.0 | 0.00 | 0.00 | 0.00 | 92 | 1022.7 |
| 20260506203540 | 55 | 0 | 0.0 | 2.0 | 0.00 | 0.00 | 0.00 | 93 | 1022.9 |
| 20260506203138 | 55 | 0 | 1.0 | 4.0 | 0.00 | 0.00 | 0.00 | 94 | 1022.8 |
| 20260506202538 | 54 | 108 | 1.0 | 4.0 | 0.00 | 0.00 | 0.00 | 94 | 1022.8 |
| 20260506202040 | 54 | 88 | 2.0 | 4.0 | 0.00 | 0.00 | 0.00 | 95 | 1022.8 |
| 20260506201549 | 53 | 90 | 0.0 | 4.0 | 0.00 | 0.00 | 0.00 | 97 | 1022.8 |
| 20260506201039 | 51 | 84 | 1.0 | 4.0 | 0.00 | 0.00 | 0.00 | 97 | 1022.7 |
| 20260506200539 | 50 | 91 | 1.0 | 3.0 | 0.00 | 0.00 | 0.00 | 96 | 1022.8 |
| 20260506200052 | 50 | 94 | 1.0 | 2.0 | 0.00 | 0.00 | 0.00 | 96 | 1022.9 |
| 20260506195539 | 49 | 0 | 0.0 | 1.0 | 0.00 | 0.00 | 0.00 | 96 | 1022.9 |
| 20260506195039 | 49 | 0 | 0.0 | 1.0 | 0.00 | 0.00 | 0.00 | 96 | 1022.9 |
| 20260506194549 | 49 | 0 | 0.0 | 1.0 | 0.00 | 0.00 | 0.00 | 96 | 1022.8 |
| 20260506194040 | 49 | 94 | 0.0 | 1.0 | 0.00 | 0.00 | 0.00 | 96 | 1022.9 |
| 20260506193538 | 49 | 94 | 0.0 | 1.0 | 0.00 | 0.00 | 0.00 | 96 | 1023.1 |
| 20260506193049 | 49 | 94 | 1.0 | 1.0 | 0.00 | 0.00 | 0.00 | 96 | 1022.8 |
| 20260506192538 | 49 | 94 | 1.0 | 1.0 | 0.00 | 0.00 | 0.00 | 96 | 1022.9 |
| 20260506192038 | 49 | 0 | 0.0 | 1.0 | 0.00 | 0.00 | 0.00 | 96 | 1022.9 |
| 20260506191552 | 49 | 0 | 0.0 | 0.0 | 0.00 | 0.00 | 0.00 | 96 | 1022.9 |
| 20260506191039 | 49 | 0 | 0.0 | 0.0 | 0.00 | 0.00 | 0.00 | 96 | 1022.8 |
| 20260506190540 | 49 | 0 | 0.0 | 1.0 | 0.00 | 0.00 | 0.00 | 96 | 1022.9 |
| 20260506190049 | 49 | 0 | 0.0 | 1.0 | 0.00 | 0.00 | 0.00 | 97 | 1022.8 |
| 20260506185540 | 49 | 0 | 0.0 | 1.0 | 0.00 | 0.00 | 0.00 | 96 | 1022.7 |
| 20260506185039 | 49 | 0 | 0.0 | 1.0 | 0.00 | 0.00 | 0.00 | 96 | 1022.8 |
| 20260506184552 | 49 | 0 | 0.0 | 1.0 | 0.00 | 0.00 | 0.00 | 96 | 1022.8 |
| 20260506184040 | 49 | 0 | 0.0 | 1.0 | 0.00 | 0.00 | 0.00 | 96 | 1022.7 |
| 20260506183538 | 49 | 0 | 0.0 | 1.0 | 0.00 | 0.00 | 0.00 | 96 | 1022.8 |
| 20260506183049 | 49 | 94 | 0.0 | 1.0 | 0.00 | 0.00 | 0.00 | 96 | 1022.6 |
| 20260506182538 | 49 | 0 | 0.0 | 1.0 | 0.00 | 0.00 | 0.00 | 95 | 1022.8 |
| 20260506182042 | 49 | 0 | 0.0 | 1.0 | 0.00 | 0.00 | 0.00 | 95 | 1022.8 |
| 20260506181547 | 50 | 95 | 0.0 | 1.0 | 0.00 | 0.00 | 0.00 | 96 | 1022.7 |
| 20260506181039 | 50 | 94 | 0.0 | 2.0 | 0.00 | 0.00 | 0.00 | 96 | 1022.9 |
| 20260506180540 | 50 | 0 | 1.0 | 2.0 | 0.00 | 0.00 | 0.00 | 96 | 1022.9 |
| 20260506180053 | 50 | 94 | 0.0 | 2.0 | 0.00 | 0.00 | 0.00 | 96 | 1022.9 |
| 20260506175539 | 50 | 94 | 0.0 | 4.0 | 0.00 | 0.00 | 0.00 | 96 | 1023.1 |
| 20260506175043 | 49 | 95 | 1.0 | 4.0 | 0.00 | 0.00 | 0.00 | 95 | 1023.1 |
| 20260506174605 | 50 | 79 | 2.0 | 4.0 | 0.00 | 0.00 | 0.00 | 95 | 1023.2 |
| 20260506174040 | 50 | 102 | 0.0 | 1.0 | 0.00 | 0.00 | 0.00 | 95 | 1023.1 |
| 20260506173539 | 51 | 102 | 0.0 | 1.0 | 0.00 | 0.00 | 0.00 | 96 | 1023.2 |
| 20260506173055 | 50 | 0 | 0.0 | 0.0 | 0.00 | 0.00 | 0.00 | 96 | 1023.3 |
| 20260506172538 | 51 | 0 | 0.0 | 0.0 | 0.00 | 0.00 | 0.00 | 96 | 1023.3 |
| 20260506172040 | 51 | 0 | 0.0 | 0.0 | 0.00 | 0.00 | 0.00 | 96 | 1023.4 |
| 20260506171604 | 50 | 0 | 0.0 | 1.0 | 0.00 | 0.00 | 0.00 | 96 | 1023.3 |
| 20260506171040 | 51 | 0 | 0.0 | 1.0 | 0.00 | 0.00 | 0.00 | 95 | 1023.5 |
| 20260506170539 | 51 | 102 | 0.0 | 1.0 | 0.00 | 0.00 | 0.00 | 95 | 1023.4 |
| 20260506170048 | 51 | 102 | 0.0 | 1.0 | 0.00 | 0.00 | 0.00 | 95 | 1023.5 |
| 20260506165539 | 51 | 102 | 0.0 | 1.0 | 0.00 | 0.00 | 0.00 | 95 | 1023.6 |
| 20260506165040 | 51 | 0 | 0.0 | 1.0 | 0.00 | 0.00 | 0.00 | 95 | 1023.7 |
| 20260506164558 | 52 | 102 | 0.0 | 2.0 | 0.00 | 0.00 | 0.00 | 95 | 1023.7 |
| 20260506164039 | 52 | 0 | 1.0 | 2.0 | 0.00 | 0.00 | 0.00 | 96 | 1023.7 |
| 20260506163539 | 52 | 102 | 0.0 | 1.0 | 0.00 | 0.00 | 0.00 | 96 | 1023.7 |
| 20260506163121 | 52 | 0 | 0.0 | 1.0 | 0.00 | 0.00 | 0.00 | 96 | 1023.8 |
| 20260506162539 | 52 | 0 | 0.0 | 1.0 | 0.00 | 0.00 | 0.00 | 96 | 1023.9 |
| 20260506162040 | 52 | 0 | 0.0 | 1.0 | 0.00 | 0.00 | 0.00 | 96 | 1024.0 |
| 20260506161554 | 52 | 0 | 0.0 | 1.0 | 0.00 | 0.00 | 0.00 | 96 | 1024.1 |
| 20260506161044 | 52 | 0 | 0.0 | 0.0 | 0.00 | 0.00 | 0.00 | 95 | 1024.0 |
| 20260506160539 | 52 | 0 | 0.0 | 0.0 | 0.00 | 0.00 | 0.00 | 96 | 1024.0 |
| 20260506160056 | 52 | 0 | 0.0 | 0.0 | 0.00 | 0.00 | 0.00 | 95 | 1024.1 |
| 20260506155538 | 52 | 0 | 0.0 | 0.0 | 0.00 | 0.00 | 0.00 | 95 | 1024.2 |
| 20260506155038 | 52 | 0 | 0.0 | 1.0 | 0.00 | 0.00 | 0.00 | 95 | 1024.1 |
| 20260506154552 | 52 | 0 | 0.0 | 1.0 | 0.00 | 0.00 | 0.00 | 95 | 1024.1 |
| 20260506154131 | 52 | 0 | 0.0 | 2.0 | 0.00 | 0.00 | 0.00 | 95 | 1024.1 |
| 20260506153541 | 52 | 92 | 0.0 | 2.0 | 0.00 | 0.00 | 0.00 | 96 | 1024.1 |
| 20260506153055 | 52 | 0 | 0.0 | 1.0 | 0.00 | 0.00 | 0.00 | 96 | 1024.4 |
| 20260506152539 | 52 | 82 | 0.0 | 0.0 | 0.00 | 0.00 | 0.00 | 95 | 1024.3 |
| 20260506152040 | 52 | 0 | 0.0 | 0.0 | 0.00 | 0.00 | 0.00 | 95 | 1024.3 |
| 20260506151550 | 53 | 0 | 0.0 | 0.0 | 0.00 | 0.00 | 0.00 | 95 | 1024.3 |
| 20260506151039 | 53 | 0 | 0.0 | 1.0 | 0.00 | 0.00 | 0.00 | 95 | 1024.5 |
| 20260506150539 | 53 | 0 | 0.0 | 1.0 | 0.00 | 0.00 | 0.00 | 95 | 1024.6 |
| 20260506150048 | 53 | 0 | 0.0 | 1.0 | 0.00 | 0.00 | 0.00 | 95 | 1024.6 |
| 20260506145539 | 53 | 0 | 0.0 | 0.0 | 0.00 | 0.00 | 0.00 | 95 | 1024.7 |
| 20260506145040 | 53 | 0 | 0.0 | 1.0 | 0.00 | 0.00 | 0.00 | 95 | 1024.9 |
| 20260506144552 | 53 | 0 | 0.0 | 1.0 | 0.00 | 0.00 | 0.00 | 95 | 1024.9 |
| 20260506144039 | 53 | 77 | 0.0 | 1.0 | 0.00 | 0.00 | 0.00 | 95 | 1024.9 |
| 20260506143540 | 53 | 0 | 0.0 | 0.0 | 0.00 | 0.00 | 0.00 | 95 | 1024.9 |
| 20260506143050 | 53 | 0 | 0.0 | 0.0 | 0.00 | 0.00 | 0.00 | 95 | 1024.9 |
| 20260506142542 | 53 | 0 | 0.0 | 0.0 | 0.00 | 0.00 | 0.00 | 95 | 1025.0 |
| 20260506142039 | 54 | 0 | 0.0 | 0.0 | 0.00 | 0.00 | 0.00 | 95 | 1025.0 |
| 20260506141554 | 54 | 0 | 0.0 | 0.0 | 0.00 | 0.00 | 0.00 | 95 | 1025.1 |
| 20260506141039 | 54 | 0 | 0.0 | 0.0 | 0.00 | 0.00 | 0.00 | 95 | 1025.2 |
| 20260506140539 | 54 | 0 | 0.0 | 0.0 | 0.00 | 0.00 | 0.00 | 95 | 1025.1 |
| 20260506140054 | 54 | 0 | 0.0 | 0.0 | 0.00 | 0.00 | 0.00 | 95 | 1025.2 |
| 20260506135539 | 54 | 0 | 0.0 | 0.0 | 0.00 | 0.00 | 0.00 | 95 | 1025.3 |
| 20260506135036 | 54 | 0 | 0.0 | 0.0 | 0.00 | 0.00 | 0.00 | 95 | 1025.2 |
| 20260506134553 | 54 | 0 | 0.0 | 0.0 | 0.00 | 0.00 | 0.00 | 95 | 1025.2 |
| 20260506134043 | 54 | 0 | 0.0 | 0.0 | 0.00 | 0.00 | 0.00 | 95 | 1025.2 |
| 20260506133539 | 54 | 77 | 0.0 | 1.0 | 0.00 | 0.00 | 0.00 | 95 | 1025.2 |
| 20260506133054 | 54 | 0 | 0.0 | 1.0 | 0.00 | 0.00 | 0.00 | 95 | 1025.3 |
| 20260506132536 | 55 | 77 | 0.0 | 1.0 | 0.00 | 0.00 | 0.00 | 95 | 1025.3 |
| 20260506132036 | 55 | 77 | 0.0 | 1.0 | 0.00 | 0.00 | 0.00 | 95 | 1025.3 |
| 20260506131548 | 55 | 0 | 0.0 | 0.0 | 0.00 | 0.00 | 0.00 | 95 | 1025.3 |
| 20260506131039 | 55 | 0 | 0.0 | 0.0 | 0.00 | 0.00 | 0.00 | 95 | 1025.3 |
| 20260506130540 | 55 | 0 | 0.0 | 1.0 | 0.00 | 0.00 | 0.00 | 95 | 1025.2 |
| 20260506130050 | 55 | 0 | 0.0 | 1.0 | 0.00 | 0.00 | 0.00 | 96 | 1025.3 |
| 20260506125540 | 55 | 0 | 0.0 | 0.0 | 0.00 | 0.00 | 0.00 | 96 | 1025.4 |
| 20260506125039 | 55 | 0 | 0.0 | 0.0 | 0.00 | 0.00 | 0.00 | 95 | 1025.2 |
| 20260506124550 | 55 | 0 | 0.0 | 0.0 | 0.00 | 0.00 | 0.00 | 95 | 1025.4 |
| 20260506124036 | 55 | 0 | 0.0 | 0.0 | 0.00 | 0.00 | 0.00 | 95 | 1025.4 |
| 20260506123536 | 55 | 0 | 0.0 | 0.0 | 0.00 | 0.00 | 0.00 | 95 | 1025.3 |
| 20260506123050 | 55 | 0 | 0.0 | 0.0 | 0.00 | 0.00 | 0.00 | 95 | 1025.4 |
| 20260506122535 | 55 | 0 | 0.0 | 0.0 | 0.00 | 0.00 | 0.00 | 95 | 1025.3 |
| 20260506122036 | 55 | 0 | 0.0 | 0.0 | 0.00 | 0.00 | 0.00 | 95 | 1025.3 |
| 20260506121604 | 55 | 0 | 0.0 | 0.0 | 0.00 | 0.00 | 0.00 | 95 | 1025.3 |
| 20260506121036 | 55 | 0 | 0.0 | 0.0 | 0.00 | 0.00 | 0.00 | 96 | 1025.4 |
| 20260506120537 | 55 | 0 | 0.0 | 0.0 | 0.00 | 0.00 | 0.00 | 96 | 1025.3 |
| 20260506120050 | 55 | 0 | 0.0 | 0.0 | 0.00 | 0.00 | 0.00 | 96 | 1025.3 |
| 20260506115540 | 55 | 0 | 0.0 | 0.0 | 0.00 | 0.00 | 0.00 | 95 | 1025.3 |
| 20260506115037 | 55 | 0 | 0.0 | 0.0 | 0.00 | 0.00 | 0.00 | 95 | 1025.3 |
| 20260506114546 | 55 | 0 | 0.0 | 1.0 | 0.00 | 0.00 | 0.00 | 95 | 1025.3 |
| 20260506114040 | 55 | 0 | 0.0 | 1.0 | 0.00 | 0.00 | 0.00 | 95 | 1025.3 |
| 20260506113539 | 55 | 0 | 0.0 | 1.0 | 0.00 | 0.00 | 0.00 | 95 | 1025.2 |
| 20260506113047 | 55 | 0 | 0.0 | 2.0 | 0.00 | 0.00 | 0.00 | 96 | 1025.3 |
| 20260506112537 | 55 | 0 | 0.0 | 2.0 | 0.00 | 0.00 | 0.00 | 96 | 1025.4 |
| 20260506112039 | 55 | 81 | 0.0 | 2.0 | 0.00 | 0.00 | 0.00 | 96 | 1025.3 |
| 20260506111544 | 55 | 82 | 1.0 | 2.0 | 0.00 | 0.00 | 0.00 | 96 | 1025.3 |
| 20260506111036 | 55 | 88 | 1.0 | 2.0 | 0.00 | 0.00 | 0.00 | 96 | 1025.3 |
| 20260506110539 | 55 | 62 | 1.0 | 2.0 | 0.00 | 0.00 | 0.00 | 96 | 1025.4 |
| 20260506110051 | 55 | 78 | 1.0 | 2.0 | 0.00 | 0.00 | 0.00 | 96 | 1025.5 |
| 20260506105536 | 55 | 78 | 1.0 | 2.0 | 0.00 | 0.00 | 0.00 | 96 | 1025.6 |
| 20260506105037 | 55 | 71 | 1.0 | 2.0 | 0.00 | 0.00 | 0.00 | 96 | 1025.6 |
| 20260506104549 | 55 | 83 | 1.0 | 2.0 | 0.00 | 0.00 | 0.00 | 96 | 1025.6 |
| 20260506104036 | 55 | 78 | 0.0 | 2.0 | 0.00 | 0.00 | 0.00 | 96 | 1025.6 |
| 20260506103539 | 55 | 79 | 0.0 | 2.0 | 0.00 | 0.00 | 0.00 | 96 | 1025.6 |
| 20260506103048 | 55 | 0 | 0.0 | 2.0 | 0.00 | 0.00 | 0.00 | 96 | 1025.6 |
| 20260506102540 | 55 | 79 | 0.0 | 1.0 | 0.00 | 0.00 | 0.00 | 96 | 1025.6 |
| 20260506102044 | 55 | 79 | 0.0 | 2.0 | 0.00 | 0.00 | 0.00 | 96 | 1025.6 |
| 20260506101608 | 55 | 79 | 0.0 | 2.0 | 0.00 | 0.00 | 0.00 | 96 | 1025.7 |
| 20260506101039 | 56 | 75 | 1.0 | 2.0 | 0.00 | 0.00 | 0.00 | 96 | 1025.6 |
| 20260506100539 | 56 | 73 | 0.0 | 2.0 | 0.00 | 0.00 | 0.00 | 96 | 1025.6 |
| 20260506100048 | 56 | 73 | 1.0 | 2.0 | 0.00 | 0.00 | 0.00 | 96 | 1025.7 |
| 20260506095539 | 55 | 0 | 0.0 | 0.0 | 0.00 | 0.00 | 0.00 | 96 | 1025.6 |
| 20260506095039 | 55 | 0 | 0.0 | 0.0 | 0.00 | 0.00 | 0.00 | 96 | 1025.6 |
| 20260506094553 | 54 | 0 | 0.0 | 0.0 | 0.00 | 0.00 | 0.00 | 96 | 1025.8 |
| 20260506094039 | 54 | 0 | 0.0 | 0.0 | 0.00 | 0.00 | 0.00 | 96 | 1025.7 |
| 20260506093540 | 54 | 0 | 0.0 | 1.0 | 0.00 | 0.00 | 0.00 | 96 | 1025.7 |
| 20260506093043 | 54 | 0 | 0.0 | 1.0 | 0.00 | 0.00 | 0.00 | 96 | 1025.8 |
| 20260506092539 | 54 | 73 | 0.0 | 1.0 | 0.00 | 0.00 | 0.00 | 96 | 1025.7 |
| 20260506092039 | 54 | 0 | 0.0 | 1.0 | 0.00 | 0.00 | 0.00 | 96 | 1025.9 |
| 20260506091545 | 54 | 0 | 0.0 | 1.0 | 0.00 | 0.00 | 0.00 | 95 | 1025.8 |
| 20260506091039 | 54 | 73 | 0.0 | 1.0 | 0.00 | 0.00 | 0.00 | 95 | 1025.8 |
| 20260506090540 | 54 | 0 | 0.0 | 3.0 | 0.00 | 0.00 | 0.00 | 96 | 1026.0 |
| 20260506090059 | 54 | 0 | 1.0 | 3.0 | 0.00 | 0.00 | 0.00 | 97 | 1025.9 |
| 20260506085536 | 53 | 69 | 1.0 | 3.0 | 0.00 | 0.00 | 0.00 | 96 | 1026.0 |
| 20260506085040 | 52 | 75 | 1.0 | 4.0 | 0.00 | 0.00 | 0.00 | 95 | 1026.0 |
| 20260506084552 | 52 | 76 | 1.0 | 4.0 | 0.00 | 0.00 | 0.00 | 95 | 1025.9 |
| 20260506084039 | 52 | 71 | 3.0 | 7.0 | 0.00 | 0.00 | 0.00 | 95 | 1026.0 |
| 20260506083540 | 52 | 70 | 2.0 | 8.0 | 0.00 | 0.00 | 0.00 | 94 | 1025.9 |
| 20260506083045 | 54 | 63 | 3.0 | 8.0 | 0.00 | 0.00 | 0.00 | 91 | 1025.9 |
| 20260506082540 | 55 | 0 | 0.0 | 0.0 | 0.00 | 0.00 | 0.00 | 95 | 1025.8 |
| 20260506082040 | 55 | 0 | 0.0 | 0.0 | 0.00 | 0.00 | 0.00 | 95 | 1025.7 |
| 20260506081557 | 54 | 0 | 0.0 | 0.0 | 0.00 | 0.00 | 0.00 | 95 | 1025.8 |
| 20260506081043 | 54 | 0 | 0.0 | 0.0 | 0.00 | 0.00 | 0.00 | 95 | 1025.8 |
| 20260506080540 | 54 | 0 | 0.0 | 0.0 | 0.00 | 0.00 | 0.00 | 95 | 1025.9 |
| 20260506073046 | 54 | 0 | 0.0 | 0.0 | 0.00 | 0.00 | 0.00 | 93 | 1025.9 |
| 20260506072541 | 55 | 0 | 0.0 | 0.0 | 0.00 | 0.00 | 0.00 | 94 | 1025.9 |
| 20260506072041 | 55 | 0 | 0.0 | 0.0 | 0.00 | 0.00 | 0.00 | 94 | 1025.9 |
| 20260506071549 | 55 | 0 | 0.0 | 0.0 | 0.00 | 0.00 | 0.00 | 93 | 1025.8 |
| 20260506071044 | 56 | 0 | 0.0 | 0.0 | 0.00 | 0.00 | 0.00 | 93 | 1025.6 |
| 20260506070540 | 56 | 0 | 0.0 | 1.0 | 0.00 | 0.00 | 0.00 | 93 | 1025.6 |
| 20260506062040 | 58 | 270 | 1.0 | 2.0 | 0.00 | 0.00 | 0.00 | 92 | 1025.4 |
| 20260506061549 | 58 | 270 | 1.0 | 3.0 | 0.00 | 0.00 | 0.00 | 92 | 1025.4 |
| 20260506061041 | 59 | 282 | 1.0 | 3.0 | 0.00 | 0.00 | 0.00 | 92 | 1025.4 |
| 20260506060540 | 59 | 232 | 1.0 | 3.0 | 0.00 | 0.00 | 0.00 | 91 | 1025.4 |
| 20260506051038 | 61 | 234 | 3.0 | 5.0 | 0.00 | 0.00 | 0.00 | 87 | 1025.4 |
| 20260506050538 | 62 | 241 | 4.0 | 6.0 | 0.00 | 0.00 | 0.00 | 86 | 1025.5 |
| 20260506050114 | 62 | 240 | 4.0 | 6.0 | 0.00 | 0.00 | 0.00 | 86 | 1025.5 |
| 20260506045039 | 62 | 239 | 4.0 | 7.0 | 0.00 | 0.00 | 0.00 | 85 | 1025.6 |
| 20260506044548 | 62 | 236 | 4.0 | 8.0 | 0.00 | 0.00 | 0.00 | 84 | 1025.6 |
| 20260506044039 | 63 | 238 | 4.0 | 8.0 | 0.00 | 0.00 | 0.00 | 83 | 1025.6 |
| 20260506043536 | 63 | 242 | 4.0 | 9.0 | 0.00 | 0.00 | 0.00 | 82 | 1025.7 |
| 20260506043050 | 64 | 234 | 5.0 | 10.0 | 0.00 | 0.00 | 0.00 | 80 | 1025.6 |
| 20260506042540 | 64 | 243 | 6.0 | 10.0 | 0.00 | 0.00 | 0.00 | 80 | 1025.5 |
| 20260506042042 | 65 | 230 | 6.0 | 9.0 | 0.00 | 0.00 | 0.00 | 79 | 1025.6 |
| 20260506041558 | 65 | 238 | 5.0 | 9.0 | 0.00 | 0.00 | 0.00 | 79 | 1025.6 |
| 20260506041038 | 65 | 236 | 6.0 | 9.0 | 0.00 | 0.00 | 0.00 | 78 | 1025.6 |